Regional Weather Roundup
Issued by NWS

Home | Current Version | Previous Version | Text Only | Print | Product List | Glossary Off
Versions: 1 2 3 4 5 6 7 8 9 10 11 12 13 14 15 16 17 18 19 20 21 22 23 24 25 26 27 28 29 30 31 32 33 34 35 36 37 38 39 40 41 42 43 44 45 46 47 48 49 50

242
ASUS44 KJAN 020810
RWRMS

MISSISSIPPI HOURLY WEATHER ROUNDUP
NATIONAL WEATHER SERVICE JACKSON MS
300 AM CDT TUE SEP 02 2014

NOTE: "FAIR: INDICATES FEW OR NO CLOUDS BELOW 12,000 FEET WITH NO
SIGNIFICANT WEATHER AND/OR OBSTRUCTIONS TO VISIBILITY.

MSZ001>002-007>008-010>013-018>021-025>028-034>036-020900-
NORTHWEST MISSISSIPPI

CITY           SKY/WX    TMP DP  RH WIND       PRES   REMARKS
CLARKSDALE     FAIR      73  73 100 CALM      29.98F
CLEVELAND      FAIR      75  74  99 S6        29.98F
GREENWOOD      PTCLDY    75  72  90 S7        30.02S
GREENVILLE     CLEAR     75  73  93 CALM      29.99F
GRENADA        FAIR      73  72  94 S3        30.03S
OLIVE BRANCH   CLEAR     75  75 100 S9        29.99F
OXFORD         FAIR      73  70  88 CALM      30.04F
TUNICA         SUNNY     73  72  94 S7        29.98F
$$

MSZ003>006-009-014>017-022>024-029>033-037>039-020900-
NORTHEAST MISSISSIPPI

CITY           SKY/WX    TMP DP  RH WIND       PRES   REMARKS
BELMONT        FAIR      75  71  86 S5        30.06S
COLUMBUS AFB   PTCLDY    74  72  92 CALM      30.05R
CORINTH        FAIR      77  70  78 SW6       30.02F
GOLDN TRIANGLE PTCLDY    73  68  83 SW3       30.05S
STARKVILLE     FAIR      72  70  94 CALM      30.05R
TUPELO         PTCLDY    74  70  87 SW5       30.04S
$$

MSZ040-058-020900-
CENTRAL MISSISSIPPI

CITY           SKY/WX    TMP DP  RH WIND       PRES   REMARKS
JACKSON INTL   MOCLDY    76  74  93 S3        30.04R
JACKSON HAWKNS MOCLDY    76  73  91 S6        30.04R
MERIDIAN KEY   MOCLDY    73  72  96 S5        30.05R
MERIDIAN NAS   MOCLDY    75  72  90 CALM      30.05R
RAYMOND        FAIR      73  68  83 CALM      30.04R
VICKSBURG      MOCLDY    75  73  93 SE5       30.02R
$$

MSZ059>079-020900-
SOUTH MISSISSIPPI

CITY           SKY/WX    TMP DP  RH WIND       PRES   REMARKS
BROOKHAVEN     PTSUNNY   75  75 100 CALM      30.05S FOG
HATTIESBURG    CLEAR     75  73  93 CALM      30.05R
MCCOMB         PTCLDY    75  74  96 SE3       30.03S
NATCHEZ        PTCLDY    75  73  94 S5        30.03R
PINE BELT      PTCLDY    73  70  88 CALM      30.06R
$$

MSZ080>082-020900-
COASTAL MISSISSIPPI

CITY           SKY/WX    TMP DP  RH WIND       PRES   REMARKS
BILOXI         PTCLDY    83  76  79 SW10      30.02R HX  91
PASCAGOULA     PTCLDY    75  74  96 CALM      30.02S
GULFPORT       PTCLDY    83  76  79 S6        30.01S HX  91
$$



USA.gov is the U.S. government's official web portal to all federal, state and local government web resources and services.